Weather History for KF44 - November, 2012

Change the Weather History Date:

Thursday, November 1, 2012

  Actual Average (KTYR) Record (KTYR)
Temperature  
Mean Temperature 64 °F 61 °F  
Max Temperature 83 °F 72 °F 86 °F (1963)
Min Temperature 45 °F 51 °F 28 °F (1901)
Degree Days  
Heating Degree Days 1 5  
Month to date heating degree days 5  
Since 1 July heating degree days 82  
Cooling Degree Days 0 2  
Month to date cooling degree days 2  
Year to date cooling degree days 2395  
Growing Degree Days 14 (Base 50)    
Moisture  
Dew Point 52 °F    
Average Humidity 72    
Maximum Humidity 96    
Minimum Humidity 33    
Precipitation  
Precipitation 0.00 in 0.15 in 1.70 in (1974)
Month to date precipitation 0.15  
Year to date precipitation 37.60  
Snow  
Snow - - - ()
Month to date snowfall  
Since 1 July snowfall  
Since 1 September snowfall  
Snow Depth -    
Sea Level Pressure  
Sea Level Pressure 29.99 in    
Wind  
Wind Speed 0 mph ()    
Max Wind Speed 5 mph    
Max Gust Speed -    
Visibility 10.0 miles    
Events      
T = Trace of Precipitation, MM = Missing Value Source: Averaged Metar Reports

Daily Weather History Graph

Daily Weather History Graph

Search for Another Location

Airport or City:

Trip Planner

Search our weather history database for the weather conditions in past years. The results will help you decide how hot, cold, wet, or windy it might be!

Date:

Astronomy

Nov. 01, 2012 Rise Set
Actual Time 7:40 AM CDT 6:32 PM CDT
Civil Twilight 7:15 AM CDT 6:58 PM CDT
Nautical Twilight 6:46 AM CDT 7:26 PM CDT
Astronomical Twilight 6:17 AM CDT 7:55 PM CDT
Moon 8:37 PM CDT (11/1) 10:06 AM CDT (11/1)
Length of Visible Light 11h 42m
Length of Day
10h 52m
Waning Gibbous, 93% of the Moon is Illuminated
Nov 1
Waning Gibbous
Nov 6
Last Quarter
Nov 13
New
Nov 20
First Quarter
Nov 28
Full

Hourly Weather History & Observations

Time (CDT) Temp. Heat Index Dew Point Humidity Pressure Visibility Wind Dir Wind Speed Gust Speed Precip Events Conditions
12:15 AM 51.6 °F - 49.3 °F 92% 30.01 in 10.0 mi Calm Calm - N/A   Clear
12:35 AM 50.9 °F - 49.6 °F 95% 30.02 in 10.0 mi Calm Calm - N/A   Clear
12:55 AM 51.1 °F - 48.7 °F 92% 30.01 in 10.0 mi Calm Calm - N/A   Clear
1:15 AM 50.5 °F - 48.4 °F 92% 30.01 in 10.0 mi Calm Calm - N/A   Clear
1:35 AM 49.8 °F - 48.0 °F 94% 30.01 in 10.0 mi Calm Calm - N/A   Clear
2:15 AM 48.4 °F - 47.1 °F 95% 30.01 in 10.0 mi Calm Calm - N/A   Clear
2:35 AM 48.4 °F - 47.1 °F 95% 30.01 in 10.0 mi Calm Calm - N/A   Clear
2:55 AM 48.2 °F - 47.1 °F 96% 30.01 in 10.0 mi Calm Calm - N/A   Clear
3:15 AM 47.8 °F - 46.6 °F 95% 30.01 in 10.0 mi Calm Calm - N/A   Clear
3:35 AM 47.5 °F - 45.9 °F 94% 30.01 in 10.0 mi Calm Calm - N/A   Clear
3:55 AM 46.9 °F - 45.5 °F 95% 30.00 in 10.0 mi Calm Calm - N/A   Clear
4:15 AM 46.9 °F - 45.5 °F 95% 30.00 in 10.0 mi Calm Calm - N/A   Clear
4:35 AM 47.3 °F - 45.9 °F 95% 29.99 in 10.0 mi Calm Calm - N/A   Clear
5:15 AM 46.6 °F - 45.1 °F 95% 30.00 in 10.0 mi Calm Calm - N/A   Clear
5:35 AM 45.9 °F - 44.1 °F 93% 30.00 in 10.0 mi Calm Calm - N/A   Clear
5:55 AM 45.7 °F - 44.2 °F 95% 30.00 in 10.0 mi Calm Calm - N/A   Clear
6:15 AM 45.9 °F - 44.4 °F 95% 30.00 in 10.0 mi Calm Calm - N/A   Clear
6:35 AM 45.5 °F - 43.7 °F 93% 30.01 in 10.0 mi Calm Calm - N/A   Clear
6:55 AM 45.7 °F - 44.2 °F 95% 30.01 in 10.0 mi Calm Calm - N/A   Clear
7:15 AM 46.0 °F - 44.2 °F 93% 30.01 in 10.0 mi Calm Calm - N/A   Clear
7:35 AM 46.6 °F - 44.6 °F 93% 30.01 in 10.0 mi Calm Calm - N/A   Clear
8:35 AM 49.8 °F - 47.7 °F 92% 30.04 in 10.0 mi Calm Calm - N/A   Clear
8:55 AM 52.5 °F - 49.6 °F 90% 30.04 in 10.0 mi Calm Calm - N/A   Clear
9:15 AM 55.4 °F - 52.2 °F 89% 30.05 in 10.0 mi Calm Calm - N/A   Clear
9:35 AM 58.6 °F - 54.0 °F 84% 30.05 in 10.0 mi Calm Calm - N/A   Clear
10:15 AM 63.9 °F - 54.9 °F 72% 30.06 in 10.0 mi South 3.5 mph - N/A   Clear
10:35 AM 66.2 °F - 54.7 °F 66% 30.05 in 10.0 mi South 3.5 mph - N/A   Clear
10:55 AM 67.6 °F - 55.0 °F 64% 30.05 in 10.0 mi Calm Calm - N/A   Clear
11:15 AM 69.3 °F - 55.6 °F 62% 30.05 in 10.0 mi Calm Calm - N/A   Clear
11:35 AM 70.9 °F - 55.6 °F 58% 30.05 in 10.0 mi Calm Calm - N/A   Clear
11:55 AM 72.9 °F - 56.3 °F 56% 30.05 in 10.0 mi Calm Calm - N/A   Clear
12:15 PM 74.5 °F - 56.7 °F 54% 30.04 in 10.0 mi Calm Calm - N/A   Clear
12:35 PM 75.7 °F - 56.3 °F 51% 30.03 in 10.0 mi Calm Calm - N/A   Clear
1:15 PM 77.7 °F - 55.6 °F 46% 30.01 in 10.0 mi Calm Calm - N/A   Clear
1:35 PM 79.2 °F - 55.6 °F 44% 30.00 in 10.0 mi Calm Calm - N/A   Clear
1:55 PM 80.2 °F 80.4 °F 55.6 °F 43% 29.99 in 10.0 mi South 4.6 mph - N/A   Clear
2:15 PM 81.1 °F 80.7 °F 54.3 °F 39% 29.98 in 10.0 mi Calm Calm - N/A   Clear
2:35 PM 81.7 °F 81.0 °F 54.0 °F 38% 29.97 in 10.0 mi Calm Calm - N/A   Clear
2:55 PM 82.2 °F 81.3 °F 53.4 °F 37% 29.96 in 10.0 mi Calm Calm - N/A   Clear
3:15 PM 82.6 °F - 52.5 °F 35% 29.96 in 10.0 mi West 3.5 mph - N/A   Clear
3:35 PM 82.8 °F - 52.3 °F 35% 29.95 in 10.0 mi Calm Calm - N/A   Clear
3:55 PM 83.1 °F - 50.9 °F 33% 29.95 in 10.0 mi Calm Calm - N/A   Clear
4:15 PM 82.9 °F - 52.5 °F 35% 29.95 in 10.0 mi West 4.6 mph - N/A   Clear
4:35 PM 83.1 °F - 52.9 °F 35% 29.95 in 10.0 mi WSW 3.5 mph - N/A   Clear
4:55 PM 82.9 °F - 52.2 °F 34% 29.94 in 10.0 mi SSW 3.5 mph - N/A   Clear
5:15 PM 82.6 °F 81.5 °F 53.1 °F 36% 29.94 in 10.0 mi Calm Calm - N/A   Clear
5:35 PM 82.0 °F 81.3 °F 54.3 °F 38% 29.94 in 10.0 mi Calm Calm - N/A   Clear
5:55 PM 80.6 °F 80.5 °F 55.6 °F 42% 29.94 in 10.0 mi Calm Calm - N/A   Clear
6:15 PM 78.3 °F - 57.0 °F 48% 29.94 in 10.0 mi Calm Calm - N/A   Clear
6:35 PM 75.0 °F - 58.1 °F 56% 29.94 in 10.0 mi Calm Calm - N/A   Clear
6:55 PM 71.8 °F - 58.3 °F 62% 29.95 in 10.0 mi Calm Calm - N/A   Clear
7:15 PM 69.1 °F - 58.1 °F 68% 29.95 in 10.0 mi Calm Calm - N/A   Clear
7:35 PM 67.5 °F - 58.3 °F 72% 29.95 in 10.0 mi Calm Calm - N/A   Clear
7:55 PM 66.6 °F - 58.3 °F 75% 29.96 in 10.0 mi Calm Calm - N/A   Clear
8:15 PM 65.3 °F - 58.1 °F 77% 29.96 in 10.0 mi Calm Calm - N/A   Clear
8:35 PM 63.9 °F - 57.6 °F 80% 29.96 in 10.0 mi Calm Calm - N/A   Clear
8:55 PM 62.8 °F - 57.4 °F 82% 29.96 in 10.0 mi Calm Calm - N/A   Clear
9:15 PM 62.2 °F - 57.2 °F 84% 29.96 in 10.0 mi Calm Calm - N/A   Clear
9:35 PM 61.2 °F - 56.8 °F 86% 29.96 in 10.0 mi Calm Calm - N/A   Clear
9:55 PM 60.4 °F - 56.5 °F 87% 29.97 in 10.0 mi Calm Calm - N/A   Clear
10:15 PM 60.3 °F - 56.7 °F 88% 29.96 in 10.0 mi Calm Calm - N/A   Clear
10:35 PM 59.5 °F - 56.3 °F 89% 29.97 in 10.0 mi Calm Calm - N/A   Clear
10:55 PM 59.7 °F - 55.8 °F 87% 29.96 in 10.0 mi Calm Calm - N/A   Clear
11:15 PM 59.9 °F - 55.6 °F 86% 29.96 in 10.0 mi Calm Calm - N/A   Clear
11:35 PM 63.9 °F - 55.4 °F 74% 29.96 in 10.0 mi Calm Calm - N/A   Clear
11:55 PM 65.7 °F - 55.6 °F 70% 29.96 in 10.0 mi Calm Calm - N/A   Clear